Location: Kalberh�ni
(46.4610°N, 7.2453°E)
Time: 01:05:55
(UTC+00:00)

Cosmos 1302 Rocket - Pass Details

Date: 20 June 2021
Orbit: 757 x 775 km, 74.0° (Epoch: 25 July)

Event Time Altitude Azimuth Distance (km) Brightness Sun altitude
Exits shadow 20:51:06 - 188° (S) 2,843 6.5 -11.1°
Reaches altitude 10° 20:52:30 10° 186° (S) 2,307 6.1 -11.3°
Maximum altitude 20:57:39 61° 107° (ESE) 870 4.1 -11.8°
Drops below altitude 10° 21:02:49 10° 28° (NNE) 2,312 6.8 -12.3°
Sets 21:05:12 0° 25° (NNE) 3,239 7.7 -12.5°
